| time (UTC) | temp C | wind direction | speed KPH | gust KPH | rain 1hr cm | rain 24hr cm | rain mn cm | humidity % | barometer mb |
| 20260505063802 | 3 | 195 | 4.8 | 4.8 | 0.30 | 0.20 | 0.20 | 96 | 1016.2 |
| 20260505063258 | 3 | 170 | 4.8 | 4.8 | 0.18 | 0.15 | 0.15 | 96 | 1016.5 |
| 20260505062754 | 3 | 215 | 0.0 | 0.0 | 0.30 | 0.15 | 0.15 | 96 | 1016.1 |
| 20260505062252 | 3 | 175 | 1.6 | 1.6 | 0.30 | 0.13 | 0.13 | 96 | 1016.1 |
| 20260505061749 | 3 | 186 | 0.0 | 0.0 | 0.30 | 0.10 | 0.10 | 96 | 1016.4 |
| 20260505061247 | 3 | 188 | 0.0 | 0.0 | 0.43 | 0.08 | 0.08 | 95 | 1016.0 |
| 20260505060744 | 3 | 188 | 0.0 | 0.0 | 0.48 | 0.05 | 0.05 | 95 | 1016.2 |
| 20260505060241 | 3 | 206 | 1.6 | 1.6 | 0.43 | 0.03 | 0.03 | 95 | 1016.2 |
| 20260505055736 | 3 | 187 | 1.6 | 1.6 | 0.43 | 1.24 | 1.24 | 95 | 1016.5 |
| 20260505055233 | 3 | 209 | 0.0 | 0.0 | 0.79 | 1.19 | 1.19 | 95 | 1016.1 |
| 20260505054730 | 3 | 223 | 1.6 | 3.2 | 0.97 | 1.17 | 1.17 | 95 | 1016.1 |
| 20260505054228 | 4 | 177 | 0.0 | 0.0 | 0.79 | 1.09 | 1.09 | 96 | 1016.0 |
| 20260505053726 | 4 | 157 | 1.6 | 1.6 | 0.43 | 1.02 | 1.02 | 96 | 1016.1 |
| 20260505053222 | 5 | 107 | 0.0 | 1.6 | 0.30 | 0.97 | 0.97 | 96 | 1016.4 |
| 20260505052719 | 5 | 187 | 0.0 | 0.0 | 0.30 | 0.94 | 0.94 | 96 | 1016.2 |
| 20260505052216 | 5 | 188 | 0.0 | 0.0 | 0.43 | 0.91 | 0.91 | 96 | 1016.4 |
| 20260505051713 | 5 | 161 | 0.0 | 0.0 | 0.30 | 0.89 | 0.89 | 95 | 1016.0 |
| 20260505051206 | 5 | 177 | 0.0 | 0.0 | 0.13 | 0.86 | 0.86 | 95 | 1016.1 |
| 20260505050703 | 5 | 151 | 4.8 | 4.8 | 0.18 | 0.84 | 0.84 | 95 | 1016.1 |
| 20260505050201 | 5 | 174 | 4.8 | 4.8 | 0.00 | 0.81 | 0.81 | 95 | 1016.1 |
| 20260505041631 | 5 | 175 | 3.2 | 4.8 | 0.00 | 0.76 | 0.76 | 94 | 1016.0 |
| 20260505041128 | 5 | 195 | 1.6 | 1.6 | 0.18 | 0.76 | 0.76 | 94 | 1016.1 |
| 20260505040625 | 5 | 192 | 3.2 | 3.2 | 0.18 | 0.76 | 0.76 | 93 | 1016.1 |
| 20260505040122 | 5 | 201 | 1.6 | 3.2 | 0.13 | 0.74 | 0.74 | 92 | 1016.1 |
| 20260505035619 | 5 | 186 | 0.0 | 1.6 | 0.13 | 0.74 | 0.74 | 92 | 1016.1 |
| 20260505035115 | 5 | 237 | 1.6 | 1.6 | 0.00 | 0.71 | 0.71 | 91 | 1015.9 |
| 20260505034612 | 5 | 230 | 4.8 | 4.8 | 0.00 | 0.71 | 0.71 | 90 | 1015.6 |
| 20260505034109 | 5 | 204 | 4.8 | 4.8 | 0.00 | 0.71 | 0.71 | 89 | 1016.1 |
| 20260505033605 | 5 | 184 | 6.4 | 9.7 | 0.00 | 0.71 | 0.71 | 89 | 1015.9 |
| 20260505033104 | 5 | 174 | 3.2 | 3.2 | 0.00 | 0.71 | 0.71 | 90 | 1015.7 |
| 20260505032601 | 5 | 174 | 3.2 | 3.2 | 0.00 | 0.71 | 0.71 | 90 | 1015.5 |
| 20260505032057 | 5 | 238 | 8.0 | 9.7 | 0.00 | 0.71 | 0.71 | 91 | 1015.5 |
| 20260505031555 | 5 | 258 | 1.6 | 1.6 | 0.00 | 0.71 | 0.71 | 91 | 1015.4 |
| 20260505031051 | 5 | 164 | 8.0 | 9.7 | 0.18 | 0.71 | 0.71 | 91 | 1015.5 |
| 20260505030548 | 5 | 231 | 3.2 | 4.8 | 0.18 | 0.71 | 0.71 | 92 | 1015.0 |
| 20260505030044 | 5 | 206 | 6.4 | 9.7 | 0.13 | 0.69 | 0.69 | 92 | 1015.2 |
| 20260505025540 | 5 | 191 | 1.6 | 1.6 | 0.13 | 0.69 | 0.69 | 93 | 1015.1 |
| 20260505025039 | 5 | 236 | 0.0 | 1.6 | 0.18 | 0.66 | 0.66 | 93 | 1015.4 |
| 20260505024536 | 5 | 163 | 0.0 | 0.0 | 0.18 | 0.66 | 0.66 | 93 | 1015.1 |
| 20260505024033 | 5 | 189 | 4.8 | 8.0 | 0.30 | 0.64 | 0.64 | 94 | 1015.1 |
| 20260505023530 | 5 | 194 | 0.0 | 1.6 | 0.43 | 0.64 | 0.64 | 95 | 1015.4 |
| 20260505023028 | 5 | 236 | 1.6 | 1.6 | 0.30 | 0.61 | 0.61 | 94 | 1015.1 |
| 20260505022525 | 5 | 178 | 0.0 | 1.6 | 0.13 | 0.58 | 0.58 | 94 | 1015.0 |
| 20260505022022 | 5 | 178 | 0.0 | 0.0 | 0.18 | 0.56 | 0.56 | 94 | 1015.1 |
| 20260505021518 | 5 | 229 | 1.6 | 3.2 | 0.18 | 0.56 | 0.56 | 93 | 1014.9 |
| 20260505021015 | 5 | 263 | 4.8 | 4.8 | 0.00 | 0.53 | 0.53 | 93 | 1014.7 |
| 20260505020514 | 5 | 220 | 4.8 | 4.8 | 0.00 | 0.53 | 0.53 | 94 | 1014.6 |
| 20260505020012 | 5 | 225 | 4.8 | 8.0 | 0.18 | 0.53 | 0.53 | 93 | 1014.6 |
| 20260505015509 | 5 | 268 | 1.6 | 1.6 | 0.30 | 0.53 | 0.53 | 92 | 1014.6 |
| 20260505015006 | 6 | 220 | 1.6 | 1.6 | 0.43 | 0.51 | 0.51 | 92 | 1014.7 |
| 20260505014503 | 6 | 272 | 4.8 | 4.8 | 0.48 | 0.48 | 0.48 | 90 | 1014.4 |
| 20260505014000 | 6 | 343 | 11.3 | 12.9 | 0.18 | 0.43 | 0.43 | 90 | 1014.6 |
| 20260505013457 | 6 | 316 | 4.8 | 4.8 | 0.13 | 0.41 | 0.41 | 89 | 1014.6 |
| 20260505012954 | 6 | 22 | 8.0 | 11.3 | 0.30 | 0.41 | 0.41 | 86 | 1014.4 |
| 20260505012452 | 6 | 310 | 8.0 | 11.3 | 0.79 | 0.38 | 0.38 | 86 | 1014.6 |
| 20260505011949 | 6 | 321 | 4.8 | 4.8 | 0.71 | 0.36 | 0.36 | 90 | 1014.5 |
| 20260505011445 | 6 | 241 | 1.6 | 3.2 | 0.30 | 0.28 | 0.28 | 89 | 1014.5 |
| 20260505010942 | 6 | 252 | 6.4 | 9.7 | 0.18 | 0.23 | 0.23 | 88 | 1014.0 |
| 20260505010437 | 7 | 260 | 3.2 | 3.2 | 0.97 | 0.23 | 0.23 | 86 | 1013.9 |
| 20260505005934 | 7 | 229 | 3.2 | 3.2 | 0.79 | 0.20 | 0.20 | 83 | 1013.6 |
| 20260505005431 | 10 | 352 | 8.0 | 11.3 | 0.00 | 0.08 | 0.08 | 72 | 1013.6 |
| 20260505004928 | 9 | 300 | 6.4 | 9.7 | 0.00 | 0.08 | 0.08 | 64 | 1013.5 |
| 20260505004425 | 11 | 299 | 11.3 | 12.9 | 0.00 | 0.08 | 0.08 | 61 | 1013.1 |
| 20260505003922 | 11 | 149 | 3.2 | 3.2 | 0.00 | 0.08 | 0.08 | 58 | 1012.8 |
| 20260505003419 | 11 | 227 | 6.4 | 8.0 | 0.00 | 0.08 | 0.08 | 57 | 1012.8 |
| 20260505002915 | 11 | 143 | 6.4 | 9.7 | 0.00 | 0.08 | 0.08 | 57 | 1012.6 |
| 20260505002412 | 11 | 121 | 8.0 | 9.7 | 0.00 | 0.08 | 0.08 | 58 | 1012.6 |
| 20260505001910 | 11 | 169 | 4.8 | 4.8 | 0.00 | 0.08 | 0.08 | 61 | 1012.8 |
| 20260505001407 | 11 | 148 | 8.0 | 11.3 | 0.00 | 0.08 | 0.08 | 60 | 1012.5 |
| 20260505000904 | 11 | 160 | 8.0 | 9.7 | 0.00 | 0.08 | 0.08 | 60 | 1012.8 |
| 20260505000402 | 11 | 106 | 6.4 | 11.3 | 0.00 | 0.08 | 0.08 | 60 | 1012.6 |
| 20260504235858 | 11 | 133 | 9.7 | 11.3 | 0.00 | 0.08 | 0.08 | 60 | 1012.6 |
| 20260504235355 | 12 | 114 | 9.7 | 11.3 | 0.00 | 0.08 | 0.08 | 59 | 1012.8 |
| 20260504234852 | 12 | 119 | 9.7 | 12.9 | 0.00 | 0.08 | 0.08 | 59 | 1013.1 |
| 20260504234350 | 12 | 148 | 11.3 | 16.1 | 0.00 | 0.08 | 0.08 | 58 | 1013.0 |
| 20260504233846 | 11 | 136 | 9.7 | 16.1 | 0.00 | 0.08 | 0.08 | 61 | 1013.1 |
| 20260504233341 | 11 | 182 | 8.0 | 11.3 | 0.00 | 0.08 | 0.08 | 61 | 1013.1 |
| 20260504232838 | 11 | 117 | 6.4 | 9.7 | 0.00 | 0.08 | 0.08 | 62 | 1013.3 |
| 20260504232336 | 11 | 152 | 6.4 | 8.0 | 0.00 | 0.08 | 0.08 | 63 | 1013.3 |
| 20260504231832 | 11 | 125 | 11.3 | 17.7 | 0.00 | 0.08 | 0.08 | 62 | 1013.3 |
| 20260504231329 | 11 | 150 | 9.7 | 12.9 | 0.00 | 0.08 | 0.08 | 63 | 1013.1 |
| 20260504230825 | 11 | 134 | 14.5 | 17.7 | 0.00 | 0.08 | 0.08 | 63 | 1013.3 |
| 20260504230323 | 11 | 161 | 12.9 | 12.9 | 0.00 | 0.08 | 0.08 | 64 | 1013.4 |
| 20260504225822 | 11 | 120 | 8.0 | 9.7 | 0.00 | 0.08 | 0.08 | 63 | 1013.4 |
| 20260504225317 | 12 | 129 | 11.3 | 12.9 | 0.00 | 0.08 | 0.08 | 64 | 1013.5 |
| 20260504224815 | 11 | 116 | 11.3 | 16.1 | 0.00 | 0.08 | 0.08 | 63 | 1013.5 |
| 20260504224312 | 11 | 142 | 8.0 | 9.7 | 0.00 | 0.08 | 0.08 | 65 | 1013.6 |
| 20260504223809 | 11 | 220 | 8.0 | 11.3 | 0.00 | 0.08 | 0.08 | 65 | 1013.8 |
| 20260504223304 | 11 | 120 | 8.0 | 11.3 | 0.00 | 0.08 | 0.08 | 68 | 1014.0 |
| 20260504222801 | 11 | 153 | 4.8 | 8.0 | 0.00 | 0.08 | 0.08 | 68 | 1014.0 |
| 20260504222258 | 10 | 186 | 11.3 | 14.5 | 0.00 | 0.08 | 0.08 | 72 | 1014.1 |
| 20260504221756 | 10 | 160 | 4.8 | 4.8 | 0.00 | 0.08 | 0.08 | 76 | 1014.1 |
| 20260504221253 | 10 | 108 | 8.0 | 9.7 | 0.00 | 0.08 | 0.08 | 74 | 1014.4 |
| 20260504220749 | 9 | 141 | 9.7 | 12.9 | 0.00 | 0.08 | 0.08 | 76 | 1014.1 |
| 20260504220246 | 9 | 151 | 8.0 | 9.7 | 0.00 | 0.08 | 0.08 | 79 | 1014.5 |
| 20260504215744 | 9 | 134 | 6.4 | 8.0 | 0.00 | 0.08 | 0.08 | 80 | 1014.4 |
| 20260504215240 | 10 | 137 | 4.8 | 4.8 | 0.00 | 0.08 | 0.08 | 83 | 1014.7 |
| 20260504214736 | 8 | 161 | 8.0 | 9.7 | 0.00 | 0.08 | 0.08 | 81 | 1015.1 |
| 20260504214233 | 8 | 114 | 6.4 | 8.0 | 0.00 | 0.08 | 0.08 | 83 | 1014.9 |
| 20260504213729 | 8 | 164 | 8.0 | 11.3 | 0.00 | 0.08 | 0.08 | 84 | 1015.2 |
| 20260504213226 | 8 | 192 | 0.0 | 1.6 | 0.13 | 0.08 | 0.08 | 82 | 1015.1 |
| 20260504212723 | 8 | 222 | 1.6 | 3.2 | 0.30 | 0.08 | 0.08 | 82 | 1015.1 |
| 20260504212219 | 8 | 216 | 4.8 | 8.0 | 0.30 | 0.05 | 0.05 | 83 | 1015.4 |
| 20260504211717 | 8 | 317 | 4.8 | 4.8 | 0.13 | 0.03 | 0.03 | 78 | 1015.4 |
| 20260504211213 | 10 | 315 | 11.3 | 12.9 | 0.00 | 0.00 | 0.00 | 73 | 1015.5 |
| 20260504210711 | 11 | 31 | 6.4 | 8.0 | 0.00 | 0.00 | 0.00 | 63 | 1014.9 |
| 20260504210208 | 11 | 346 | 1.6 | 1.6 | 0.00 | 0.00 | 0.00 | 61 | 1015.1 |
| 20260504205705 | 11 | 133 | 6.4 | 8.0 | 0.00 | 0.00 | 0.00 | 60 | 1015.0 |
| 20260504205202 | 11 | 124 | 1.6 | 1.6 | 0.00 | 0.00 | 0.00 | 60 | 1014.6 |
| 20260504204700 | 11 | 146 | 1.6 | 3.2 | 0.00 | 0.00 | 0.00 | 61 | 1014.6 |
| 20260504204159 | 11 | 63 | 8.0 | 12.9 | 0.00 | 0.00 | 0.00 | 59 | 1014.9 |
| 20260504203657 | 12 | 195 | 8.0 | 9.7 | 0.00 | 0.00 | 0.00 | 59 | 1015.0 |
| 20260504203155 | 11 | 27 | 1.6 | 1.6 | 0.00 | 0.00 | 0.00 | 67 | 1014.9 |
| 20260504202654 | 11 | 185 | 1.6 | 1.6 | 0.00 | 0.00 | 0.00 | 63 | 1015.1 |
| 20260504202152 | 11 | 194 | 1.6 | 1.6 | 0.00 | 0.00 | 0.00 | 62 | 1015.4 |
| 20260504201649 | 10 | 170 | 3.2 | 3.2 | 0.00 | 0.00 | 0.00 | 64 | 1015.6 |
| 20260504201146 | 10 | 147 | 4.8 | 4.8 | 0.00 | 0.00 | 0.00 | 73 | 1015.6 |
| 20260504200643 | 10 | 115 | 1.6 | 3.2 | 0.00 | 0.00 | 0.00 | 70 | 1015.7 |
| 20260504200140 | 10 | 58 | 3.2 | 3.2 | 0.00 | 0.00 | 0.00 | 68 | 1015.7 |
| 20260504195636 | 10 | 114 | 1.6 | 3.2 | 0.00 | 0.00 | 0.00 | 69 | 1015.9 |
| 20260504195132 | 8 | 172 | 0.0 | 0.0 | 0.00 | 0.00 | 0.00 | 71 | 1015.9 |
| 20260504194629 | 8 | 10 | 6.4 | 8.0 | 0.00 | 0.00 | 0.00 | 75 | 1016.2 |
| 20260504194125 | 8 | 252 | 3.2 | 3.2 | 0.00 | 0.00 | 0.00 | 75 | 1016.4 |
| 20260504193621 | 8 | 298 | 1.6 | 3.2 | 0.00 | 0.00 | 0.00 | 74 | 1016.4 |
| 20260504193120 | 8 | 311 | 1.6 | 3.2 | 0.00 | 0.00 | 0.00 | 71 | 1016.4 |
| 20260504192617 | 10 | 315 | 6.4 | 11.3 | 0.00 | 0.00 | 0.00 | 62 | 1016.1 |
| 20260504192115 | 10 | 325 | 3.2 | 4.8 | 0.00 | 0.00 | 0.00 | 56 | 1015.5 |
| 20260504191614 | 11 | 40 | 9.7 | 16.1 | 0.00 | 0.00 | 0.00 | 54 | 1015.5 |
| 20260504191109 | 10 | 177 | 4.8 | 8.0 | 0.00 | 0.00 | 0.00 | 56 | 1015.4 |
| 20260504190606 | 10 | 223 | 1.6 | 3.2 | 0.00 | 0.00 | 0.00 | 57 | 1015.4 |
| 20260504185559 | 12 | 50 | 11.3 | 16.1 | 0.00 | 0.00 | 0.00 | 51 | 1015.2 |
| 20260504185055 | 13 | 159 | 3.2 | 4.8 | 0.00 | 0.00 | 0.00 | 42 | 1015.1 |
| 20260504184551 | 13 | 150 | 11.3 | 12.9 | 0.00 | 0.00 | 0.00 | 39 | 1014.7 |
| 20260504184046 | 13 | 134 | 1.6 | 1.6 | 0.00 | 0.00 | 0.00 | 39 | 1014.7 |
| 20260504183544 | 15 | 131 | 6.4 | 9.7 | 0.00 | 0.00 | 0.00 | 39 | 1014.4 |
| 20260504183042 | 14 | 107 | 6.4 | 8.0 | 0.00 | 0.00 | 0.00 | 41 | 1014.6 |
| 20260504182539 | 14 | 174 | 3.2 | 8.0 | 0.00 | 0.00 | 0.00 | 42 | 1014.9 |
| 20260504182036 | 13 | 144 | 4.8 | 8.0 | 0.00 | 0.00 | 0.00 | 41 | 1015.1 |
| 20260504181533 | 14 | 158 | 4.8 | 9.7 | 0.00 | 0.00 | 0.00 | 41 | 1015.4 |
| 20260504181031 | 13 | 149 | 3.2 | 4.8 | 0.00 | 0.00 | 0.00 | 45 | 1015.2 |
| 20260504180530 | 12 | 141 | 1.6 | 3.2 | 0.00 | 0.00 | 0.00 | 43 | 1015.6 |
| 20260504180028 | 13 | 173 | 8.0 | 8.0 | 0.00 | 0.00 | 0.00 | 43 | 1015.6 |
| 20260504175525 | 12 | 87 | 3.2 | 3.2 | 0.00 | 0.00 | 0.00 | 46 | 1016.1 |
| 20260504175022 | 12 | 76 | 3.2 | 4.8 | 0.00 | 0.00 | 0.00 | 48 | 1016.1 |
| 20260504174520 | 12 | 87 | 4.8 | 8.0 | 0.00 | 0.00 | 0.00 | 51 | 1016.1 |
| 20260504174016 | 11 | 171 | 9.7 | 12.9 | 0.00 | 0.00 | 0.00 | 52 | 1016.2 |
| 20260504173513 | 11 | 90 | 9.7 | 12.9 | 0.00 | 0.00 | 0.00 | 53 | 1016.4 |
| 20260504173011 | 11 | 192 | 4.8 | 4.8 | 0.00 | 0.00 | 0.00 | 56 | 1016.7 |
| 20260504172507 | 10 | 137 | 11.3 | 12.9 | 0.00 | 0.00 | 0.00 | 57 | 1016.6 |
| 20260504172003 | 10 | 150 | 8.0 | 12.9 | 0.00 | 0.00 | 0.00 | 57 | 1017.1 |
| 20260504171500 | 10 | 134 | 8.0 | 12.9 | 0.00 | 0.00 | 0.00 | 60 | 1016.9 |
| 20260504170957 | 10 | 136 | 6.4 | 8.0 | 0.00 | 0.00 | 0.00 | 60 | 1017.0 |
| 20260504170453 | 9 | 143 | 6.4 | 9.7 | 0.00 | 0.00 | 0.00 | 63 | 1017.5 |
| 20260504160413 | 10 | 6 | 6.4 | 11.3 | 0.00 | 0.00 | 0.00 | 60 | 1017.8 |
| 20260504150837 | 7 | 53 | 3.2 | 3.2 | 0.00 | 0.00 | 0.00 | 55 | 1017.8 |
| 20260504150333 | 6 | 108 | 3.2 | 4.8 | 0.00 | 0.00 | 0.00 | 55 | 1018.0 |
| 20260504141304 | 3 | 185 | 0.0 | 0.0 | 0.00 | 0.00 | 0.00 | 67 | 1018.5 |
| 20260504140800 | 3 | 175 | 0.0 | 0.0 | 0.00 | 0.00 | 0.00 | 67 | 1018.6 |
| 20260504140256 | 3 | 165 | 0.0 | 0.0 | 0.00 | 0.00 | 0.00 | 69 | 1018.5 |
| 20260504130725 | 2 | 176 | 0.0 | 1.6 | 0.00 | 0.00 | 0.00 | 68 | 1017.7 |
| 20260504130220 | 2 | 171 | 0.0 | 0.0 | 0.00 | 0.00 | 0.00 | 69 | 1017.7 |
| 20260504120145 | 1 | 122 | 1.6 | 1.6 | 0.00 | 0.00 | 0.00 | 71 | 1017.1 |
| 20260504110612 | 1 | 165 | 0.0 | 0.0 | 0.00 | 0.00 | 0.00 | 74 | 1017.1 |
| 20260504110108 | 0 | 153 | 0.0 | 0.0 | 0.00 | 0.00 | 0.00 | 76 | 1017.0 |
| 20260504100534 | 1 | 236 | 1.6 | 1.6 | 0.00 | 0.00 | 0.00 | 68 | 1016.7 |
| 20260504081927 | 1 | 190 | 1.6 | 1.6 | 0.00 | 0.00 | 0.00 | 68 | 1017.0 |
| 20260504081424 | 1 | 180 | 1.6 | 1.6 | 0.00 | 0.00 | 0.00 | 68 | 1017.0 |
| 20260504080920 | 2 | 205 | 0.0 | 0.0 | 0.00 | 0.00 | 0.00 | 63 | 1017.2 |
| 20260504080417 | 2 | 244 | 3.2 | 3.2 | 0.00 | 0.00 | 0.00 | 62 | 1017.1 |
| 20260504070344 | 2 | 194 | 0.0 | 0.0 | 0.00 | 0.00 | 0.00 | 63 | 1017.7 |